User: anonymous   Login
Location: Via Auriletto, 13, 10098 Rivoli TO, Italia
(45.0746°N, 7.5214°E)
Time: 04:16:35
(UTC+01:00)
Language:

NOAA 19 - Orbit

View from above orbital plane
View from above orbital plane
View from above satellite
View from above satellite

Ground track
Ground track

The orbit data is extracted from the following two-line orbital elements,

1 33591U 09005A   19325.47040278  .00000023  00000-0  37924-4 0  9991
2 33591  99.1905 320.4440 0013222 304.2955  55.6963 14.12384008555898
Epoch (UTC): 21 November 2019 11:17:22
Eccentricity: 0.0013222
inclination: 99.1905°
perigee height: 841 km
apogee height: 861 km
right ascension of ascending node: 320.4440°
argument of perigee: 304.2955°
revolutions per day: 14.12384008
mean anomaly at epoch: 55.6963°
orbit number at epoch: 55589

The dashed part of the orbit path shows where the satellite is in the earth's shadow,  

DLR